Lacon, IL

2:18 PM CST on December 05, 2019 (GMT -0600)
Lacon

Weather History for KC75 - October, 2019

Change the Weather History Date:

Wednesday, October 9, 2019

  Actual Average (KVYS) Record (KVYS)
Temperature  
Mean Temperature 57 °F -  
Max Temperature 72 °F 67 °F 88 °F (2010)
Min Temperature 42 °F 42 °F 27 °F (1987)
Degree Days  
Heating Degree Days 8    
Growing Degree Days 7 (Base 50)    
Moisture  
Dew Point 45 °F    
Average Humidity 65    
Maximum Humidity 95    
Minimum Humidity 36    
Precipitation  
Precipitation 0.00 in - - ()
Sea Level Pressure  
Sea Level Pressure 30.09 in    
Wind  
Wind Speed 3 mph (SE)    
Max Wind Speed 12 mph    
Max Gust Speed 18 mph    
Visibility 10 miles    
Events      
Averages and records for this station are not official NWS values.
T = Trace of Precipitation, MM = Missing Value Source: NWS Daily Summary

Daily Weather History Graph

Daily Weather History Graph

Search for Another Location

Airport or City:

Astronomy

Oct. 09, 2019 Rise Set
Actual Time 7:02 AM CDT 6:26 PM CDT
Civil Twilight 6:34 AM CDT 6:53 PM CDT
Nautical Twilight 6:02 AM CDT 7:25 PM CDT
Astronomical Twilight 5:30 AM CDT 7:57 PM CDT
Moon 5:00 PM CDT (10/9) 2:45 AM CDT (10/9)
Length of Visible Light 12h 19m
Length of Day
11h 24m
Waxing Gibbous, 85% of the Moon is Illuminated
Oct 9
Waxing Gibbous
Oct 13
Full
Oct 21
Last Quarter
Oct 27
New
Nov 4
First Quarter

Hourly Weather History & Observations

Time (CDT) Temp. Windchill Dew Point Humidity Pressure Visibility Wind Dir Wind Speed Gust Speed Precip Events Conditions
12:15 AM 51.3 °F - 42.4 °F 72% 30.11 in 10.0 mi South 3.5 mph - N/A   Clear
12:35 AM 51.3 °F - 42.3 °F 71% 30.11 in 10.0 mi Calm Calm - N/A   Clear
12:55 AM 50.5 °F - 42.6 °F 74% 30.11 in 10.0 mi Calm Calm - N/A   Clear
1:15 AM 50.9 °F - 42.3 °F 72% 30.11 in 10.0 mi Calm Calm - N/A   Clear
1:35 AM 50.0 °F - 42.4 °F 75% 30.11 in 10.0 mi Calm Calm - N/A   Clear
1:55 AM 46.9 °F - 43.2 °F 87% 30.11 in 10.0 mi Calm Calm - N/A   Clear
2:15 AM 47.7 °F - 42.4 °F 82% 30.11 in 10.0 mi Calm Calm - N/A   Clear
2:35 AM 51.4 °F - 42.3 °F 71% 30.11 in 10.0 mi Calm Calm - N/A   Clear
2:55 AM 48.4 °F - 41.7 °F 78% 30.11 in 10.0 mi Calm Calm - N/A   Clear
3:15 AM 45.1 °F - 41.9 °F 88% 30.11 in 10.0 mi Calm Calm - N/A   Clear
3:35 AM 44.4 °F - 42.4 °F 93% 30.11 in 10.0 mi Calm Calm - N/A   Clear
3:55 AM 44.2 °F - 42.4 °F 93% 30.11 in 10.0 mi Calm Calm - N/A   Clear
4:15 AM 44.6 °F - 42.8 °F 93% 30.12 in 10.0 mi Calm Calm - N/A   Clear
4:35 AM 45.1 °F - 43.0 °F 92% 30.12 in 10.0 mi Calm Calm - N/A   Clear
4:55 AM 43.7 °F - 42.1 °F 94% 30.12 in 10.0 mi Calm Calm - N/A   Clear
5:15 AM 43.7 °F 42.1 °F 42.1 °F 94% 30.12 in 7.0 mi East 3.5 mph - N/A   Clear
5:35 AM 44.1 °F 40.8 °F 42.6 °F 95% 30.13 in 7.0 mi East 5.8 mph - N/A   Clear
5:55 AM 46.6 °F - 42.4 °F 85% 30.13 in 10.0 mi Calm Calm - N/A   Clear
6:15 AM 43.7 °F - 41.4 °F 91% 30.14 in 10.0 mi Calm Calm - N/A   Clear
6:35 AM 42.6 °F - 40.8 °F 93% 30.14 in 10.0 mi Calm Calm - N/A   Clear
6:55 AM 42.8 °F - 41.2 °F 94% 30.14 in 10.0 mi Calm Calm - N/A   Clear
7:15 AM 42.6 °F - 41.0 °F 94% 30.13 in 7.0 mi Calm Calm - N/A   Clear
7:35 AM 43.2 °F - 41.5 °F 94% 30.14 in 10.0 mi Calm Calm - N/A   Clear
7:55 AM 45.3 °F - 42.6 °F 90% 30.14 in 10.0 mi Calm Calm - N/A   Clear
8:15 AM 48.2 °F - 43.2 °F 83% 30.14 in 10.0 mi Calm Calm - N/A   Clear
8:35 AM 51.1 °F - 45.0 °F 80% 30.14 in 10.0 mi Calm Calm - N/A   Clear
8:55 AM 54.0 °F - 45.7 °F 74% 30.14 in 10.0 mi Calm Calm - N/A   Clear
9:35 AM 59.0 °F - 48.0 °F 67% 30.14 in 10.0 mi SSE 4.6 mph - N/A   Clear
9:55 AM 61.3 °F - 47.7 °F 61% 30.14 in 10.0 mi SE 4.6 mph - N/A   Clear
10:15 AM 63.7 °F - 48.2 °F 57% 30.14 in 10.0 mi SE 5.8 mph - N/A   Clear
10:35 AM 65.5 °F - 47.8 °F 53% 30.14 in 10.0 mi South 8.1 mph - N/A   Clear
10:55 AM 67.1 °F - 47.1 °F 49% 30.14 in 10.0 mi SE 8.1 mph - N/A   Clear
11:15 AM 68.7 °F - 48.0 °F 48% 30.14 in 10.0 mi SSE 9.2 mph - N/A   Clear
11:35 AM 68.9 °F - 45.9 °F 44% 30.13 in 10.0 mi South 8.1 mph - N/A   Clear
11:55 AM 69.8 °F - 45.3 °F 41% 30.13 in 10.0 mi South 10.4 mph - N/A   Clear
12:15 PM 70.0 °F - 44.4 °F 40% 30.12 in 10.0 mi South 8.1 mph - N/A   Clear
12:35 PM 70.9 °F - 44.8 °F 39% 30.12 in 10.0 mi South 8.1 mph 18.4 mph N/A   Clear
12:55 PM 70.7 °F - 43.5 °F 37% 30.11 in 10.0 mi SSE 10.4 mph - N/A   Clear
1:15 PM 70.7 °F - 44.4 °F 39% 30.10 in 10.0 mi SSE 8.1 mph - N/A   Clear
1:35 PM 71.4 °F - 43.2 °F 36% 30.08 in 10.0 mi SE 11.5 mph 18.4 mph N/A   Clear
1:55 PM 72.5 °F - 45.3 °F 38% 30.06 in 10.0 mi SSE 11.5 mph - N/A   Clear
2:15 PM 72.0 °F - 44.2 °F 37% 30.05 in 10.0 mi SSE 11.5 mph - N/A   Clear
2:35 PM 72.3 °F - 44.1 °F 36% 30.04 in 10.0 mi SE 9.2 mph - N/A   Clear
2:55 PM 72.1 °F - 44.8 °F 37% 30.05 in 10.0 mi South 10.4 mph - N/A   Clear
3:15 PM 72.5 °F - 45.3 °F 38% 30.04 in 10.0 mi South 9.2 mph - N/A   Clear
3:35 PM 71.8 °F - 44.2 °F 37% 30.04 in 10.0 mi SE 9.2 mph - N/A   Clear
3:55 PM 70.9 °F - 44.8 °F 39% 30.04 in 10.0 mi SSE 5.8 mph - N/A   Clear
4:15 PM 71.6 °F - 44.4 °F 38% 30.03 in 10.0 mi ESE 5.8 mph - N/A   Clear
4:35 PM 70.9 °F - 44.4 °F 39% 30.03 in 10.0 mi SSE 5.8 mph - N/A   Clear
4:55 PM 69.8 °F - 45.7 °F 42% 30.03 in 10.0 mi SE 5.8 mph - N/A   Clear
5:15 PM 68.4 °F - 46.2 °F 45% 30.04 in 10.0 mi SE 3.5 mph - N/A   Clear
5:35 PM 67.5 °F - 46.9 °F 48% 30.03 in 10.0 mi Calm Calm - N/A   Clear
5:55 PM 65.1 °F - 49.6 °F 57% 30.04 in 10.0 mi Calm Calm - N/A   Clear
6:15 PM 64.0 °F - 49.6 °F 59% 30.03 in 10.0 mi East 4.6 mph - N/A   Clear
6:35 PM 63.5 °F - 47.5 °F 56% 30.03 in 10.0 mi East 5.8 mph - N/A   Clear
6:55 PM 62.4 °F - 47.8 °F 59% 30.03 in 10.0 mi East 5.8 mph - N/A   Clear
7:15 PM 57.9 °F - 50.2 °F 75% 30.04 in 10.0 mi Calm Calm - N/A   Clear
7:35 PM 59.7 °F - 49.3 °F 68% 30.04 in 10.0 mi ESE 3.5 mph - N/A   Clear
7:55 PM 62.4 °F - 47.3 °F 58% 30.03 in 10.0 mi East 5.8 mph - N/A   Clear
8:15 PM 61.7 °F - 47.7 °F 60% 30.03 in 10.0 mi East 8.1 mph - N/A   Clear
8:35 PM 62.2 °F - 47.7 °F 59% 30.03 in 10.0 mi ESE 6.9 mph - N/A   Clear
8:55 PM 61.7 °F - 48.2 °F 61% 30.03 in 10.0 mi ESE 5.8 mph - N/A   Clear
9:15 PM 58.5 °F - 49.1 °F 71% 30.04 in 10.0 mi SE 4.6 mph - N/A   Clear
9:35 PM 60.1 °F - 48.9 °F 67% 30.03 in 10.0 mi East 8.1 mph - N/A   Clear
9:55 PM 61.5 °F - 48.6 °F 62% 30.02 in 10.0 mi SE 8.1 mph - N/A   Clear
10:15 PM 61.7 °F - 48.7 °F 62% 30.05 in 10.0 mi SW 8.1 mph 18.4 mph N/A   Scattered Clouds
10:35 PM 61.7 °F - 48.7 °F 62% 30.05 in 10.0 mi SE 4.6 mph - N/A   Scattered Clouds
10:55 PM 61.7 °F - 48.7 °F 62% 30.04 in 10.0 mi ESE 5.8 mph - N/A   Clear
11:15 PM 61.5 °F - 48.9 °F 63% 30.03 in 10.0 mi SE 9.2 mph - N/A   Clear
11:35 PM 60.6 °F - 49.3 °F 66% 30.03 in 10.0 mi SE 6.9 mph - N/A   Clear
11:55 PM 60.3 °F - 49.3 °F 67% 30.03 in 10.0 mi SE 8.1 mph - N/A   Clear